AL3A Weather Reports


Display with metric or nautical units.
time (UTC)temp
F
wind
direction
speed
MPH
gust
MPH
rain 1hr
in
rain 24hr
in
rain mn
in
humidity
%
barometer
mb
20260506175016 54 293 1.0 4.0 0.00 0.05 0.00 44 1024.4
20260506174016 54 270 1.0 5.0 0.00 0.05 0.00 44 1024.4
20260506173016 53 293 2.0 9.0 0.00 0.05 0.00 45 1023.9
20260506172016 53 293 2.0 9.0 0.00 0.05 0.00 46 1024.6
20260506171016 52 248 2.0 6.0 0.00 0.05 0.00 46 1024.4
20260506170016 51 293 2.0 6.0 0.00 0.05 0.00 47 1023.9
20260506165016 51 293 2.0 4.0 0.00 0.05 0.00 47 1024.4
20260506164016 51 270 1.0 3.0 0.00 0.05 0.00 47 1024.3
20260506163016 50 270 1.0 6.0 0.00 0.05 0.00 50 1023.7
20260506162036 49 293 2.0 6.0 0.00 0.05 0.00 50 1023.6
20260506161016 49 270 2.0 6.0 0.00 0.05 0.00 51 1023.7
20260506160017 48 270 2.0 6.0 0.00 0.05 0.00 52 1023.6
20260506155016 48 270 1.0 4.0 0.00 0.05 0.00 54 1023.1
20260506154016 47 270 1.0 7.0 0.00 0.05 0.00 58 1023.1
20260506153016 46 293 1.0 3.0 0.00 0.05 0.00 57 1023.2
20260506152016 45 270 2.0 8.0 0.00 0.05 0.00 61 1022.7
20260506151016 45 293 2.0 8.0 0.00 0.05 0.00 59 1022.6
20260506150016 44 270 2.0 7.0 0.00 0.05 0.00 60 1022.4
20260506145016 43 248 2.0 6.0 0.00 0.05 0.00 61 1021.9
20260506144016 43 225 2.0 5.0 0.00 0.05 0.00 63 1021.8
20260506143016 42 225 1.0 5.0 0.00 0.05 0.00 65 1022.0
20260506142016 41 248 2.0 5.0 0.00 0.05 0.00 65 1021.9
20260506141016 40 225 2.0 5.0 0.00 0.05 0.00 67 1021.3
20260506140036 38 225 1.0 2.0 0.00 0.05 0.00 73 1020.7
20260506135016 37 0.0 1.0 0.00 0.05 0.00 75 1020.6
20260506134016 36 0.0 4.0 0.00 0.05 0.00 76 1020.0
20260506133015 35 248 1.0 3.0 0.00 0.05 0.00 74 1019.8
20260506132016 35 225 2.0 4.0 0.00 0.05 0.00 75 1019.9
20260506131056 34 248 1.0 3.0 0.00 0.05 0.00 76 1019.3
20260506130015 34 248 1.0 5.0 0.00 0.05 0.00 76 1019.2
20260506125015 34 225 1.0 3.0 0.00 0.05 0.00 78 1019.1
20260506124015 33 225 2.0 4.0 0.00 0.05 0.00 79 1019.1
20260506123015 31 225 1.0 4.0 0.00 0.05 0.00 82 1018.4
20260506122015 29 225 1.0 3.0 0.00 0.05 0.00 86 1017.7
20260506121015 29 225 1.0 3.0 0.00 0.05 0.00 83 1017.5
20260506120015 30 0.0 3.0 0.00 0.05 0.00 81 1017.4
20260506115015 33 225 1.0 3.0 0.00 0.05 0.00 79 1018.4
20260506114016 32 203 2.0 4.0 0.00 0.05 0.00 81 1017.9
20260506113016 31 225 1.0 3.0 0.00 0.05 0.00 84 1017.9
20260506112015 32 0.0 1.0 0.00 0.05 0.00 77 1017.2
20260506111016 33 225 1.0 2.0 0.00 0.05 0.00 80 1017.7
20260506110015 32 225 1.0 3.0 0.00 0.05 0.00 81 1017.7
20260506105015 33 225 1.0 4.0 0.00 0.05 0.00 78 1017.6
20260506104036 33 0.0 2.0 0.00 0.05 0.00 79 1017.5
20260506103015 34 225 1.0 3.0 0.00 0.05 0.00 79 1017.3
20260506102017 34 225 1.0 3.0 0.00 0.05 0.00 79 1017.8
20260506101037 34 225 1.0 4.0 0.00 0.05 0.00 79 1017.8
20260506100017 33 248 1.0 6.0 0.00 0.05 0.00 80 1017.8
20260506095017 32 225 1.0 4.0 0.00 0.05 0.00 83 1018.3
20260506094017 30 248 1.0 3.0 0.00 0.05 0.00 83 1017.6
20260506093017 32 225 2.0 6.0 0.00 0.05 0.00 79 1018.1
20260506092017 33 225 1.0 3.0 0.00 0.05 0.00 80 1018.1
20260506091017 34 248 1.0 3.0 0.00 0.05 0.00 79 1018.1
20260506090017 33 180 1.0 3.0 0.00 0.05 0.00 80 1018.1
20260506085037 33 225 1.0 3.0 0.00 0.05 0.00 81 1019.0
20260506084017 32 225 2.0 5.0 0.00 0.05 0.00 82 1018.4
20260506083017 32 203 1.0 3.0 0.00 0.05 0.00 84 1018.5
20260506082017 31 225 2.0 4.0 0.00 0.05 0.00 85 1019.1
20260506081017 31 0.0 2.0 0.00 0.05 0.00 86 1019.1
20260506073037 29 0.0 0.0 0.00 0.05 0.00 89 1019.0
20260506072017 30 0.0 1.0 0.00 0.05 0.00 89 1019.9
20260506071017 31 0.0 0.0 0.00 0.05 0.00 91 1019.8
20260506062015 31 0.0 0.0 0.00 0.05 0.05 89 1019.3
20260506061035 32 0.0 0.0 0.00 0.05 0.05 89 1019.7
20260506051016 34 0.0 0.0 0.00 0.05 0.05 88 1018.2
20260506045016 35 0.0 2.0 0.00 0.05 0.05 86 1018.1
20260506044036 35 0.0 2.0 0.00 0.05 0.05 87 1017.9
20260506043015 35 0.0 2.0 0.00 0.05 0.05 88 1017.9
20260506042015 35 0.0 2.0 0.00 0.05 0.05 89 1017.8
20260506041017 35 180 1.0 3.0 0.00 0.05 0.05 88 1017.5
20260506040017 36 0.0 2.0 0.00 0.05 0.05 87 1017.9
20260506035017 36 180 1.0 2.0 0.00 0.05 0.05 88 1017.4
20260506034017 36 180 1.0 3.0 0.00 0.05 0.05 89 1017.3
20260506033017 36 158 1.0 3.0 0.00 0.05 0.05 90 1017.3
20260506032037 36 0.0 2.0 0.00 0.05 0.05 91 1017.2
20260506031038 36 0.0 1.0 0.00 0.05 0.05 91 1017.1
20260506030017 36 0.0 1.0 0.00 0.05 0.05 92 1016.8
20260506025017 36 0.0 0.0 0.00 0.05 0.05 92 1016.7
20260506024017 36 0.0 3.0 0.00 0.05 0.05 91 1016.5
20260506023017 36 0.0 0.0 0.00 0.05 0.05 91 1016.0
20260506022117 36 0.0 0.0 0.00 0.05 0.05 91 1014.7
20260506021017 36 0.0 2.0 0.00 0.05 0.05 91 1014.5
20260506020057 37 0.0 0.0 0.00 0.05 0.05 90 1015.0
20260506015017 37 0.0 0.0 0.00 0.05 0.05 90 1013.8
20260506014017 37 0.0 1.0 0.00 0.05 0.05 89 1013.7
20260506013019 37 0.0 2.0 0.00 0.05 0.05 89 1013.6
20260506012017 37 0.0 3.0 0.00 0.05 0.05 89 1012.9
20260506011017 37 90 1.0 2.0 0.00 0.05 0.05 89 1012.5
20260506010017 37 90 1.0 2.0 0.00 0.05 0.05 89 1012.8
20260506005017 37 90 1.0 2.0 0.00 0.05 0.05 89 1013.3
20260506004017 37 90 1.0 2.0 0.01 0.05 0.05 89 1013.2
20260506003017 37 68 1.0 2.0 0.01 0.05 0.05 88 1013.1
20260506002017 37 68 1.0 2.0 0.01 0.05 0.05 88 1013.7
20260506001017 37 0.0 1.0 0.02 0.05 0.05 89 1013.4
20260506000017 37 0.0 3.0 0.02 0.05 0.05 89 1013.3
20260505235017 37 68 1.0 2.0 0.02 0.05 0.05 90 1013.2
20260505234037 37 0.0 2.0 0.02 0.04 0.04 90 1013.0
20260505233017 37 0.0 2.0 0.03 0.04 0.04 90 1012.9
20260505232017 37 68 1.0 2.0 0.04 0.04 0.04 90 1012.7
20260505231016 36 90 1.0 4.0 0.03 0.03 0.03 89 1012.0
20260505230037 36 90 1.0 2.0 0.03 0.03 0.03 89 1011.9
20260505225017 36 90 1.0 3.0 0.03 0.03 0.03 88 1012.0
20260505224016 36 0.0 2.0 0.02 0.02 0.02 87 1012.2
20260505223117 36 0.0 3.0 0.01 0.01 0.01 87 1012.1
20260505222016 36 0.0 2.0 0.00 0.00 0.00 87 1012.2
20260505221057 36 90 1.0 2.0 0.00 0.00 0.00 86 1012.1
20260505220016 38 180 1.0 2.0 0.00 0.00 0.00 80 1012.9
20260505215037 39 0.0 0.0 0.00 0.00 0.00 77 1013.6
20260505214057 41 0.0 2.0 0.00 0.00 0.00 70 1013.9
20260505213017 40 0.0 0.0 0.00 0.00 0.00 69 1013.5
20260505212037 40 0.0 1.0 0.00 0.00 0.00 71 1013.1
20260505211016 39 0.0 2.0 0.00 0.00 0.00 72 1013.0
20260505210017 40 68 1.0 3.0 0.00 0.00 0.00 72 1012.9
20260505205016 40 23 1.0 4.0 0.00 0.00 0.00 68 1013.2
20260505204016 42 0.0 3.0 0.00 0.00 0.00 60 1013.3
20260505203016 43 180 1.0 3.0 0.00 0.00 0.00 54 1013.8
20260505202016 43 113 1.0 3.0 0.00 0.00 0.00 59 1013.4
20260505201016 45 270 1.0 7.0 0.00 0.00 0.00 57 1014.3
20260505200036 47 270 1.0 7.0 0.00 0.00 0.00 56 1014.2
20260505195016 48 248 1.0 3.0 0.00 0.00 0.00 62 1014.6
20260505194016 47 270 1.0 7.0 0.00 0.00 0.00 59 1014.3
20260505193016 48 270 2.0 7.0 0.00 0.00 0.00 58 1014.9
20260505192016 49 270 2.0 7.0 0.00 0.00 0.00 58 1015.4
20260505191016 50 270 2.0 6.0 0.00 0.00 0.00 54 1015.3
20260505190016 51 248 1.0 5.0 0.00 0.00 0.00 52 1015.8
20260505185016 51 225 1.0 6.0 0.00 0.00 0.00 54 1016.0
20260505184037 52 270 1.0 4.0 0.00 0.00 0.00 52 1016.4
20260505183036 52 270 1.0 4.0 0.00 0.00 0.00 49 1016.2
20260505182016 52 225 1.0 5.0 0.00 0.00 0.00 47 1016.3
20260505181037 51 270 1.0 8.0 0.00 0.00 0.00 48 1016.4
20260505180016 50 225 1.0 3.0 0.00 0.00 0.00 49 1015.9